Time,TemperatureF,DewpointF,PressureIn,WindDirection,WindDirectionDegrees,WindSpeedMPH,WindSpeedGustMPH,Humidity,HourlyPrecipIn,Conditions,Clouds,dailyrainin,SoftwareType,DateUTC
2013-05-12 00:01:00,76.0,65.5,29.99,North,0,0.0,0.0,70,0.00,,,0.00,WUHU216HW,2013-05-12 04:01:00,
2013-05-12 00:06:00,75.8,65.3,29.99,North,0,0.0,0.0,70,0.00,,,0.00,WUHU216HW,2013-05-12 04:06:00,
2013-05-12 00:11:00,75.6,65.2,29.99,North,0,0.0,0.0,70,0.00,,,0.00,WUHU216HW,2013-05-12 04:11:00,
2013-05-12 00:16:00,75.6,65.2,30.00,North,0,0.0,0.0,70,0.00,,,0.00,WUHU216HW,2013-05-12 04:16:00,
2013-05-12 00:21:00,75.4,65.0,29.99,North,0,0.0,0.0,70,0.00,,,0.00,WUHU216HW,2013-05-12 04:21:00,
2013-05-12 00:26:00,75.2,64.8,29.99,North,0,0.0,0.0,70,0.00,,,0.00,WUHU216HW,2013-05-12 04:26:00,
2013-05-12 00:31:00,75.2,64.8,29.99,North,0,0.0,0.0,70,0.00,,,0.00,WUHU216HW,2013-05-12 04:31:00,
2013-05-12 00:36:00,75.1,65.1,30.00,North,0,0.0,0.0,71,0.00,,,0.00,WUHU216HW,2013-05-12 04:36:00,
2013-05-12 00:41:00,75.1,65.1,30.00,North,0,0.0,0.0,71,0.00,,,0.00,WUHU216HW,2013-05-12 04:41:00,
2013-05-12 00:46:00,75.1,65.1,30.00,North,0,0.0,0.0,71,0.00,,,0.00,WUHU216HW,2013-05-12 04:46:00,
2013-05-12 00:51:00,75.1,65.1,30.00,North,0,0.0,0.0,71,0.00,,,0.00,WUHU216HW,2013-05-12 04:51:00,
2013-05-12 00:56:00,75.1,65.1,29.99,North,0,0.0,0.0,71,0.00,,,0.00,WUHU216HW,2013-05-12 04:56:00,
2013-05-12 01:01:00,75.1,65.1,30.00,North,0,0.0,0.0,71,0.00,,,0.00,WUHU216HW,2013-05-12 05:01:00,
2013-05-12 01:06:00,75.1,65.4,30.00,North,0,0.0,0.0,72,0.00,,,0.00,WUHU216HW,2013-05-12 05:06:00,
2013-05-12 01:11:00,75.1,65.4,30.00,North,0,0.0,0.0,72,0.00,,,0.00,WUHU216HW,2013-05-12 05:11:00,
2013-05-12 01:16:00,75.1,65.4,30.00,North,0,0.0,0.0,72,0.00,,,0.00,WUHU216HW,2013-05-12 05:16:00,
2013-05-12 01:21:00,74.9,65.3,29.99,North,0,0.0,0.0,72,0.00,,,0.00,WUHU216HW,2013-05-12 05:21:00,
2013-05-12 01:26:00,74.9,65.3,29.99,North,0,0.0,0.0,72,0.00,,,0.00,WUHU216HW,2013-05-12 05:26:00,
2013-05-12 01:31:00,74.9,65.3,29.99,North,0,0.0,0.0,72,0.00,,,0.00,WUHU216HW,2013-05-12 05:31:00,
2013-05-12 01:36:00,74.9,65.3,29.99,North,0,0.0,0.0,72,0.00,,,0.00,WUHU216HW,2013-05-12 05:36:00,
2013-05-12 01:41:00,74.9,65.3,29.98,North,0,0.0,0.0,72,0.00,,,0.00,WUHU216HW,2013-05-12 05:41:00,
2013-05-12 01:46:00,74.7,65.1,29.99,North,0,0.0,0.0,72,0.00,,,0.00,WUHU216HW,2013-05-12 05:46:00,
2013-05-12 01:51:00,74.7,65.1,29.99,North,0,0.0,0.0,72,0.00,,,0.00,WUHU216HW,2013-05-12 05:51:00,
2013-05-12 01:56:00,74.7,65.1,29.99,North,0,0.0,0.0,72,0.00,,,0.00,WUHU216HW,2013-05-12 05:56:00,
2013-05-12 02:01:00,74.7,65.1,29.98,North,0,0.0,0.0,72,0.00,,,0.00,WUHU216HW,2013-05-12 06:01:00,
2013-05-12 02:06:00,74.7,65.1,29.98,North,0,0.0,0.0,72,0.00,,,0.00,WUHU216HW,2013-05-12 06:06:00,
2013-05-12 02:11:00,74.7,65.1,29.98,North,0,0.0,0.0,72,0.00,,,0.00,WUHU216HW,2013-05-12 06:11:00,
2013-05-12 02:16:00,74.7,65.5,29.98,North,0,0.0,0.0,73,0.00,,,0.00,WUHU216HW,2013-05-12 06:16:00,
2013-05-12 02:21:00,74.5,65.4,29.98,North,0,0.0,0.0,73,0.00,,,0.00,WUHU216HW,2013-05-12 06:21:00,
2013-05-12 02:26:00,74.5,65.4,29.97,North,0,0.0,0.0,73,0.00,,,0.00,WUHU216HW,2013-05-12 06:26:00,
2013-05-12 02:31:00,74.5,65.7,29.97,North,0,0.0,0.0,74,0.00,,,0.00,WUHU216HW,2013-05-12 06:31:00,
2013-05-12 02:36:00,74.5,65.7,29.97,North,0,0.0,0.0,74,0.00,,,0.00,WUHU216HW,2013-05-12 06:36:00,
2013-05-12 02:41:00,74.5,65.7,29.97,North,0,0.0,0.0,74,0.00,,,0.00,WUHU216HW,2013-05-12 06:41:00,
2013-05-12 02:46:00,74.5,65.7,29.96,North,0,0.0,0.0,74,0.00,,,0.00,WUHU216HW,2013-05-12 06:46:00,
2013-05-12 02:51:00,74.5,65.7,29.96,North,0,0.0,0.0,74,0.00,,,0.00,WUHU216HW,2013-05-12 06:51:00,
2013-05-12 02:56:00,74.3,65.9,29.95,North,0,0.0,0.0,75,0.00,,,0.00,WUHU216HW,2013-05-12 06:56:00,
2013-05-12 03:01:00,74.3,65.9,29.95,North,0,0.0,0.0,75,0.00,,,0.00,WUHU216HW,2013-05-12 07:01:00,
2013-05-12 03:06:00,74.3,65.9,29.95,North,0,0.0,0.0,75,0.00,,,0.00,WUHU216HW,2013-05-12 07:06:00,
2013-05-12 03:11:00,74.3,65.9,29.95,North,0,0.0,0.0,75,0.00,,,0.00,WUHU216HW,2013-05-12 07:11:00,
2013-05-12 03:16:00,74.3,65.9,29.95,North,0,0.0,0.0,75,0.00,,,0.00,WUHU216HW,2013-05-12 07:16:00,
2013-05-12 03:21:00,74.2,65.8,29.95,North,0,0.0,0.0,75,0.00,,,0.00,WUHU216HW,2013-05-12 07:21:00,
2013-05-12 03:26:00,74.2,65.8,29.94,North,0,0.0,0.0,75,0.00,,,0.00,WUHU216HW,2013-05-12 07:26:00,
2013-05-12 03:31:00,74.2,65.8,29.94,North,0,0.0,0.0,75,0.00,,,0.00,WUHU216HW,2013-05-12 07:31:00,
2013-05-12 03:36:00,74.0,65.6,29.94,North,0,0.0,0.0,75,0.00,,,0.00,WUHU216HW,2013-05-12 07:36:00,
2013-05-12 03:41:00,74.0,65.6,29.94,North,0,0.0,0.0,75,0.00,,,0.00,WUHU216HW,2013-05-12 07:41:00,
2013-05-12 03:46:00,74.0,65.6,29.94,North,0,0.0,0.0,75,0.00,,,0.00,WUHU216HW,2013-05-12 07:46:00,
2013-05-12 03:51:00,73.8,65.8,29.93,North,0,0.0,0.0,76,0.00,,,0.00,WUHU216HW,2013-05-12 07:51:00,
2013-05-12 03:56:00,73.8,65.8,29.93,North,0,0.0,0.0,76,0.00,,,0.00,WUHU216HW,2013-05-12 07:56:00,
2013-05-12 04:01:00,73.8,65.8,29.93,North,0,0.0,0.0,76,0.00,,,0.00,WUHU216HW,2013-05-12 08:01:00,
2013-05-12 04:06:00,73.4,65.4,29.92,North,0,0.0,0.0,76,0.00,,,0.00,WUHU216HW,2013-05-12 08:06:00,
2013-05-12 04:11:00,73.1,65.4,29.92,North,0,0.0,0.0,77,0.00,,,0.00,WUHU216HW,2013-05-12 08:11:00,
2013-05-12 04:16:00,73.1,65.4,29.93,North,0,0.0,0.0,77,0.00,,,0.00,WUHU216HW,2013-05-12 08:16:00,
2013-05-12 04:21:00,73.1,65.4,29.93,North,0,0.0,0.0,77,0.00,,,0.00,WUHU216HW,2013-05-12 08:21:00,
2013-05-12 04:26:00,73.1,65.9,29.93,North,0,0.0,0.0,78,0.00,,,0.00,WUHU216HW,2013-05-12 08:26:00,
2013-05-12 04:31:00,73.1,65.9,29.94,North,0,0.0,0.0,78,0.00,,,0.00,WUHU216HW,2013-05-12 08:31:00,
2013-05-12 04:36:00,73.1,65.9,29.94,North,0,0.0,0.0,78,0.00,,,0.00,WUHU216HW,2013-05-12 08:36:00,
2013-05-12 04:41:00,73.1,65.9,29.94,North,0,0.0,0.0,78,0.00,,,0.00,WUHU216HW,2013-05-12 08:41:00,
2013-05-12 04:46:00,73.1,65.9,29.94,North,0,0.0,0.0,78,0.00,,,0.00,WUHU216HW,2013-05-12 08:46:00,
2013-05-12 04:51:00,72.9,65.7,29.94,North,0,0.0,0.0,78,0.00,,,0.00,WUHU216HW,2013-05-12 08:51:00,
2013-05-12 04:56:00,72.9,65.7,29.94,North,0,0.0,0.0,78,0.00,,,0.00,WUHU216HW,2013-05-12 08:56:00,
2013-05-12 05:01:00,72.9,65.7,29.95,North,0,0.0,0.0,78,0.00,,,0.00,WUHU216HW,2013-05-12 09:01:00,
2013-05-12 05:06:00,72.9,65.7,29.95,North,0,0.0,0.0,78,0.00,,,0.00,WUHU216HW,2013-05-12 09:06:00,
2013-05-12 05:11:00,72.7,65.5,29.94,North,0,0.0,0.0,78,0.00,,,0.00,WUHU216HW,2013-05-12 09:11:00,
2013-05-12 05:16:00,72.7,65.5,29.94,North,0,0.0,0.0,78,0.00,,,0.00,WUHU216HW,2013-05-12 09:16:00,
2013-05-12 05:21:00,72.7,65.9,29.94,North,0,0.0,0.0,79,0.00,,,0.00,WUHU216HW,2013-05-12 09:21:00,
2013-05-12 05:26:00,72.7,65.9,29.94,North,0,0.0,0.0,79,0.00,,,0.00,WUHU216HW,2013-05-12 09:26:00,
2013-05-12 05:31:00,72.7,65.9,29.94,North,0,0.0,0.0,79,0.00,,,0.00,WUHU216HW,2013-05-12 09:31:00,
2013-05-12 05:36:00,72.5,65.7,29.93,North,0,0.0,0.0,79,0.00,,,0.00,WUHU216HW,2013-05-12 09:36:00,
2013-05-12 05:41:00,72.5,65.7,29.93,North,0,0.0,0.0,79,0.00,,,0.00,WUHU216HW,2013-05-12 09:41:00,
2013-05-12 05:46:00,72.4,65.2,29.93,North,0,0.0,0.0,78,0.00,,,0.00,WUHU216HW,2013-05-12 09:46:00,
2013-05-12 05:51:00,72.4,65.2,29.93,North,0,0.0,0.0,78,0.00,,,0.00,WUHU216HW,2013-05-12 09:51:00,
2013-05-12 05:56:00,72.4,65.2,29.93,North,0,0.0,0.0,78,0.00,,,0.00,WUHU216HW,2013-05-12 09:56:00,
2013-05-12 06:01:00,72.2,65.0,29.93,North,0,0.0,0.0,78,0.00,,,0.00,WUHU216HW,2013-05-12 10:01:00,
2013-05-12 06:06:00,72.0,65.2,29.93,North,0,0.0,0.0,79,0.00,,,0.00,WUHU216HW,2013-05-12 10:06:00,
2013-05-12 06:11:00,72.0,65.2,29.93,North,0,0.0,0.0,79,0.00,,,0.00,WUHU216HW,2013-05-12 10:11:00,
2013-05-12 06:16:00,72.0,65.2,29.94,North,0,0.0,0.0,79,0.00,,,0.00,WUHU216HW,2013-05-12 10:16:00,
2013-05-12 06:21:00,72.0,65.2,29.94,North,0,0.0,0.0,79,0.00,,,0.00,WUHU216HW,2013-05-12 10:21:00,
2013-05-12 06:26:00,72.0,65.2,29.95,North,0,0.0,0.0,79,0.00,,,0.00,WUHU216HW,2013-05-12 10:26:00,
2013-05-12 06:31:00,72.0,65.5,29.95,North,0,0.0,0.0,80,0.00,,,0.00,WUHU216HW,2013-05-12 10:31:00,
2013-05-12 06:36:00,72.0,65.5,29.95,North,0,0.0,0.0,80,0.00,,,0.00,WUHU216HW,2013-05-12 10:36:00,
2013-05-12 06:41:00,72.0,65.5,29.95,North,0,0.0,0.0,80,0.00,,,0.00,WUHU216HW,2013-05-12 10:41:00,
2013-05-12 06:46:00,72.0,65.5,29.96,North,0,0.0,0.0,80,0.00,,,0.00,WUHU216HW,2013-05-12 10:46:00,
2013-05-12 06:51:00,72.0,65.5,29.96,North,0,0.0,0.0,80,0.00,,,0.00,WUHU216HW,2013-05-12 10:51:00,
2013-05-12 06:56:00,72.0,65.5,29.96,North,0,0.0,0.0,80,0.00,,,0.00,WUHU216HW,2013-05-12 10:56:00,
2013-05-12 07:01:00,72.0,65.5,29.97,North,0,0.0,0.0,80,0.00,,,0.00,WUHU216HW,2013-05-12 11:01:00,
2013-05-12 07:06:00,72.0,65.5,29.98,North,0,0.0,0.0,80,0.00,,,0.00,WUHU216HW,2013-05-12 11:06:00,
2013-05-12 07:11:00,72.0,65.9,29.98,North,0,0.0,0.0,81,0.00,,,0.00,WUHU216HW,2013-05-12 11:11:00,
2013-05-12 07:16:00,72.2,66.1,29.98,North,0,0.0,0.0,81,0.00,,,0.00,WUHU216HW,2013-05-12 11:16:00,
2013-05-12 07:21:00,72.4,66.3,29.98,North,0,0.0,0.0,81,0.00,,,0.00,WUHU216HW,2013-05-12 11:21:00,
2013-05-12 07:26:00,72.4,66.3,29.98,North,0,0.0,0.0,81,0.00,,,0.00,WUHU216HW,2013-05-12 11:26:00,
2013-05-12 07:31:00,72.4,66.3,29.98,North,0,0.0,0.0,81,0.00,,,0.00,WUHU216HW,2013-05-12 11:31:00,
2013-05-12 07:36:00,72.5,66.4,29.98,North,0,0.0,0.0,81,0.00,,,0.00,WUHU216HW,2013-05-12 11:36:00,
2013-05-12 07:41:00,72.7,66.6,29.98,North,0,0.0,0.0,81,0.00,,,0.00,WUHU216HW,2013-05-12 11:41:00,
2013-05-12 07:46:00,72.7,67.0,29.99,North,0,0.0,0.0,82,0.00,,,0.00,WUHU216HW,2013-05-12 11:46:00,
2013-05-12 07:51:00,72.9,67.2,29.99,North,0,0.0,0.0,82,0.00,,,0.00,WUHU216HW,2013-05-12 11:51:00,
2013-05-12 07:56:00,73.1,67.3,29.99,North,0,0.0,0.0,82,0.00,,,0.00,WUHU216HW,2013-05-12 11:56:00,
2013-05-12 08:01:00,73.1,67.3,29.99,North,0,0.0,0.0,82,0.00,,,0.00,WUHU216HW,2013-05-12 12:01:00,
2013-05-12 08:06:00,73.3,67.5,29.99,North,0,0.0,0.0,82,0.00,,,0.00,WUHU216HW,2013-05-12 12:06:00,
2013-05-12 08:11:00,73.4,67.7,29.99,North,0,0.0,0.0,82,0.00,,,0.00,WUHU216HW,2013-05-12 12:11:00,
2013-05-12 08:16:00,73.8,68.3,29.99,North,0,0.0,0.0,83,0.00,,,0.00,WUHU216HW,2013-05-12 12:16:00,
2013-05-12 08:21:00,73.8,68.3,29.99,North,0,0.0,0.0,83,0.00,,,0.00,WUHU216HW,2013-05-12 12:21:00,
2013-05-12 08:26:00,74.0,68.5,29.99,North,0,0.0,0.0,83,0.00,,,0.00,WUHU216HW,2013-05-12 12:26:00,
2013-05-12 08:31:00,74.2,68.7,29.99,North,0,0.0,0.0,83,0.00,,,0.00,WUHU216HW,2013-05-12 12:31:00,
2013-05-12 08:36:00,74.2,68.7,29.99,North,0,0.0,0.0,83,0.00,,,0.00,WUHU216HW,2013-05-12 12:36:00,
2013-05-12 08:41:00,74.3,68.9,29.99,North,0,0.0,0.0,83,0.00,,,0.00,WUHU216HW,2013-05-12 12:41:00,
2013-05-12 08:46:00,74.3,69.2,29.99,North,0,0.0,0.0,84,0.00,,,0.00,WUHU216HW,2013-05-12 12:46:00,
2013-05-12 08:51:00,74.5,69.4,29.99,North,0,0.0,0.0,84,0.00,,,0.00,WUHU216HW,2013-05-12 12:51:00,
2013-05-12 08:56:00,74.5,69.4,29.99,North,0,0.0,0.0,84,0.00,,,0.00,WUHU216HW,2013-05-12 12:56:00,
2013-05-12 09:01:00,74.9,69.8,29.99,North,0,0.0,0.0,84,0.00,,,0.00,WUHU216HW,2013-05-12 13:01:00,
2013-05-12 09:06:00,75.1,69.9,30.00,North,0,0.0,0.0,84,0.00,,,0.00,WUHU216HW,2013-05-12 13:06:00,
2013-05-12 09:11:00,75.2,70.1,30.00,North,0,0.0,0.0,84,0.00,,,0.00,WUHU216HW,2013-05-12 13:11:00,
2013-05-12 09:16:00,75.2,69.8,30.00,North,0,0.0,0.0,83,0.00,,,0.00,WUHU216HW,2013-05-12 13:16:00,
2013-05-12 09:21:00,75.6,70.1,29.99,North,0,0.0,0.0,83,0.00,,,0.00,WUHU216HW,2013-05-12 13:21:00,
2013-05-12 09:26:00,76.0,70.5,29.99,North,0,0.0,0.0,83,0.00,,,0.00,WUHU216HW,2013-05-12 13:26:00,
2013-05-12 09:31:00,76.3,70.8,30.00,North,0,0.0,0.0,83,0.00,,,0.00,WUHU216HW,2013-05-12 13:31:00,
2013-05-12 09:36:00,76.7,71.1,30.00,North,0,0.0,0.0,83,0.00,,,0.00,WUHU216HW,2013-05-12 13:36:00,
2013-05-12 09:41:00,77.0,71.1,30.00,North,0,0.0,0.0,82,0.00,,,0.00,WUHU216HW,2013-05-12 13:41:00,
2013-05-12 09:46:00,77.4,71.1,29.99,North,0,0.0,0.0,81,0.00,,,0.00,WUHU216HW,2013-05-12 13:46:00,
2013-05-12 09:51:00,78.1,71.8,29.99,North,0,0.0,0.0,81,0.00,,,0.00,WUHU216HW,2013-05-12 13:51:00,
2013-05-12 09:56:00,78.5,71.8,30.00,North,0,0.0,0.0,80,0.00,,,0.00,WUHU216HW,2013-05-12 13:56:00,
2013-05-12 10:01:00,79.0,71.6,30.00,North,0,0.0,0.0,78,0.00,,,0.00,WUHU216HW,2013-05-12 14:01:00,
2013-05-12 10:06:00,79.6,72.1,30.00,North,0,0.0,0.0,78,0.00,,,0.00,WUHU216HW,2013-05-12 14:06:00,
2013-05-12 10:11:00,79.9,72.1,30.00,North,0,0.0,0.0,77,0.00,,,0.00,WUHU216HW,2013-05-12 14:11:00,
2013-05-12 10:16:00,80.5,71.8,30.00,North,0,0.0,0.0,75,0.00,,,0.00,WUHU216HW,2013-05-12 14:16:00,
2013-05-12 10:21:00,81.0,71.9,29.99,North,0,0.0,0.0,74,0.00,,,0.00,WUHU216HW,2013-05-12 14:21:00,
2013-05-12 10:26:00,81.4,71.9,29.99,North,0,0.0,0.0,73,0.00,,,0.00,WUHU216HW,2013-05-12 14:26:00,
2013-05-12 10:31:00,81.7,71.8,30.00,North,0,0.0,0.0,72,0.00,,,0.00,WUHU216HW,2013-05-12 14:31:00,
2013-05-12 10:36:00,82.3,72.3,30.00,North,0,0.0,0.0,72,0.00,,,0.00,WUHU216HW,2013-05-12 14:36:00,
2013-05-12 10:41:00,82.6,72.6,30.00,North,0,0.0,0.0,72,0.00,,,0.00,WUHU216HW,2013-05-12 14:41:00,
2013-05-12 10:46:00,83.2,72.8,30.00,North,0,0.0,0.0,71,0.00,,,0.00,WUHU216HW,2013-05-12 14:46:00,
2013-05-12 10:51:00,83.5,72.7,30.00,North,0,0.0,0.0,70,0.00,,,0.00,WUHU216HW,2013-05-12 14:51:00,
2013-05-12 10:56:00,83.9,72.6,29.99,North,0,0.0,0.0,69,0.00,,,0.00,WUHU216HW,2013-05-12 14:56:00,
2013-05-12 11:01:00,84.2,72.5,30.00,North,0,0.0,0.0,68,0.00,,,0.00,WUHU216HW,2013-05-12 15:01:00,
2013-05-12 11:06:00,84.6,72.5,29.99,North,0,0.0,0.0,67,0.00,,,0.00,WUHU216HW,2013-05-12 15:06:00,
2013-05-12 11:11:00,85.0,72.8,30.00,North,0,0.0,0.0,67,0.00,,,0.00,WUHU216HW,2013-05-12 15:11:00,
2013-05-12 11:16:00,85.1,72.6,29.99,North,0,0.0,0.0,66,0.00,,,0.00,WUHU216HW,2013-05-12 15:16:00,
2013-05-12 11:21:00,85.3,72.2,29.99,North,0,0.0,0.0,65,0.00,,,0.00,WUHU216HW,2013-05-12 15:21:00,
2013-05-12 11:26:00,85.9,72.7,29.99,North,0,0.0,0.0,65,0.00,,,0.00,WUHU216HW,2013-05-12 15:26:00,
2013-05-12 11:31:00,86.0,72.5,29.99,North,0,0.0,0.0,64,0.00,,,0.00,WUHU216HW,2013-05-12 15:31:00,
2013-05-12 11:36:00,86.4,71.8,29.99,North,0,0.0,0.0,62,0.00,,,0.00,WUHU216HW,2013-05-12 15:36:00,
2013-05-12 11:41:00,86.8,72.2,29.99,North,0,0.0,0.0,62,0.00,,,0.00,WUHU216HW,2013-05-12 15:41:00,
2013-05-12 11:46:00,86.9,71.9,29.99,North,0,0.0,0.0,61,0.00,,,0.00,WUHU216HW,2013-05-12 15:46:00,
2013-05-12 11:51:00,87.1,72.1,29.99,North,0,0.0,0.0,61,0.00,,,0.00,WUHU216HW,2013-05-12 15:51:00,
2013-05-12 11:56:00,87.5,72.5,29.99,North,0,0.0,0.0,61,0.00,,,0.00,WUHU216HW,2013-05-12 15:56:00,
2013-05-12 12:01:00,87.5,72.0,29.99,North,0,0.0,0.0,60,0.00,,,0.00,WUHU216HW,2013-05-12 16:01:00,
2013-05-12 12:06:00,87.5,72.0,29.99,North,0,0.0,0.0,60,0.00,,,0.00,WUHU216HW,2013-05-12 16:06:00,
2013-05-12 12:11:00,87.3,71.8,29.99,North,0,0.0,0.0,60,0.00,,,0.00,WUHU216HW,2013-05-12 16:11:00,
2013-05-12 12:16:00,87.1,71.1,29.98,North,0,0.0,0.0,59,0.00,,,0.00,WUHU216HW,2013-05-12 16:16:00,
2013-05-12 12:21:00,86.9,70.4,29.98,North,0,0.0,0.0,58,0.00,,,0.00,WUHU216HW,2013-05-12 16:21:00,
2013-05-12 12:26:00,87.1,70.0,29.98,North,0,0.0,0.0,57,0.00,,,0.00,WUHU216HW,2013-05-12 16:26:00,
2013-05-12 12:31:00,87.1,70.0,29.98,North,0,0.0,0.0,57,0.00,,,0.00,WUHU216HW,2013-05-12 16:31:00,
2013-05-12 12:36:00,87.5,70.4,29.98,North,0,0.0,0.0,57,0.00,,,0.00,WUHU216HW,2013-05-12 16:36:00,
2013-05-12 12:41:00,87.5,69.8,29.98,North,0,0.0,0.0,56,0.00,,,0.00,WUHU216HW,2013-05-12 16:41:00,
2013-05-12 12:46:00,87.7,69.5,29.97,North,0,0.0,0.0,55,0.00,,,0.00,WUHU216HW,2013-05-12 16:46:00,
2013-05-12 12:51:00,88.0,69.3,29.97,North,0,0.0,0.0,54,0.00,,,0.00,WUHU216HW,2013-05-12 16:51:00,
2013-05-12 12:56:00,88.0,69.9,29.97,North,0,0.0,0.0,55,0.00,,,0.00,WUHU216HW,2013-05-12 16:56:00,
2013-05-12 13:01:00,88.0,69.9,29.96,North,0,0.0,0.0,55,0.00,,,0.00,WUHU216HW,2013-05-12 17:01:00,
2013-05-12 13:06:00,88.2,70.0,29.96,North,0,0.0,0.0,55,0.00,,,0.00,WUHU216HW,2013-05-12 17:06:00,
2013-05-12 13:11:00,88.4,70.1,29.96,North,0,0.0,0.0,55,0.00,,,0.00,WUHU216HW,2013-05-12 17:11:00,
2013-05-12 13:16:00,88.6,70.3,29.96,North,0,0.0,0.0,55,0.00,,,0.00,WUHU216HW,2013-05-12 17:16:00,
2013-05-12 13:21:00,88.7,70.5,29.95,North,0,0.0,0.0,55,0.00,,,0.00,WUHU216HW,2013-05-12 17:21:00,
2013-05-12 13:26:00,88.7,70.5,29.95,North,0,0.0,0.0,55,0.00,,,0.00,WUHU216HW,2013-05-12 17:26:00,
2013-05-12 13:31:00,88.7,69.9,29.96,North,0,0.0,0.0,54,0.00,,,0.00,WUHU216HW,2013-05-12 17:31:00,
2013-05-12 13:36:00,88.9,70.1,29.95,North,0,0.0,0.0,54,0.00,,,0.00,WUHU216HW,2013-05-12 17:36:00,
2013-05-12 13:41:00,88.9,70.1,29.95,North,0,0.0,0.0,54,0.00,,,0.00,WUHU216HW,2013-05-12 17:41:00,
2013-05-12 13:46:00,88.9,69.6,29.95,North,0,0.0,0.0,53,0.00,,,0.00,WUHU216HW,2013-05-12 17:46:00,
2013-05-12 13:51:00,88.9,70.1,29.95,North,0,0.0,0.0,54,0.00,,,0.00,WUHU216HW,2013-05-12 17:51:00,
2013-05-12 13:56:00,88.9,69.6,29.95,North,0,0.0,0.0,53,0.00,,,0.00,WUHU216HW,2013-05-12 17:56:00,
2013-05-12 14:01:00,88.9,70.1,29.95,North,0,0.0,0.0,54,0.00,,,0.00,WUHU216HW,2013-05-12 18:01:00,
2013-05-12 14:06:00,88.9,70.1,29.95,North,0,0.0,0.0,54,0.00,,,0.00,WUHU216HW,2013-05-12 18:06:00,
2013-05-12 14:11:00,88.9,70.1,29.95,North,0,0.0,0.0,54,0.00,,,0.00,WUHU216HW,2013-05-12 18:11:00,
2013-05-12 14:16:00,88.9,69.6,29.95,North,0,0.0,0.0,53,0.00,,,0.00,WUHU216HW,2013-05-12 18:16:00,
2013-05-12 14:21:00,88.9,70.1,29.95,North,0,0.0,0.0,54,0.00,,,0.00,WUHU216HW,2013-05-12 18:21:00,
2013-05-12 14:26:00,88.6,69.2,29.94,North,0,0.0,0.0,53,0.00,,,0.00,WUHU216HW,2013-05-12 18:26:00,
2013-05-12 14:31:00,88.6,69.8,29.94,North,0,0.0,0.0,54,0.00,,,0.00,WUHU216HW,2013-05-12 18:31:00,
2013-05-12 14:36:00,88.6,69.8,29.94,North,0,0.0,0.0,54,0.00,,,0.00,WUHU216HW,2013-05-12 18:36:00,
2013-05-12 14:41:00,88.7,69.4,29.94,North,0,0.0,0.0,53,0.00,,,0.00,WUHU216HW,2013-05-12 18:41:00,
2013-05-12 14:46:00,88.7,69.4,29.94,North,0,0.0,0.0,53,0.00,,,0.00,WUHU216HW,2013-05-12 18:46:00,
2013-05-12 14:51:00,88.9,69.6,29.94,North,0,0.0,0.0,53,0.00,,,0.00,WUHU216HW,2013-05-12 18:51:00,
2013-05-12 14:56:00,88.9,69.0,29.94,North,0,0.0,0.0,52,0.00,,,0.00,WUHU216HW,2013-05-12 18:56:00,
2013-05-12 15:01:00,88.9,69.0,29.94,North,0,0.0,0.0,52,0.00,,,0.00,WUHU216HW,2013-05-12 19:01:00,
2013-05-12 15:06:00,88.9,69.0,29.94,North,0,0.0,0.0,52,0.00,,,0.00,WUHU216HW,2013-05-12 19:06:00,
2013-05-12 15:11:00,88.9,69.6,29.93,North,0,0.0,0.0,53,0.00,,,0.00,WUHU216HW,2013-05-12 19:11:00,
2013-05-12 15:16:00,88.7,68.9,29.93,North,0,0.0,0.0,52,0.00,,,0.00,WUHU216HW,2013-05-12 19:16:00,
2013-05-12 15:21:00,88.6,68.7,29.93,North,0,0.0,0.0,52,0.00,,,0.00,WUHU216HW,2013-05-12 19:21:00,
2013-05-12 15:26:00,88.6,68.7,29.93,North,0,0.0,0.0,52,0.00,,,0.00,WUHU216HW,2013-05-12 19:26:00,
2013-05-12 15:31:00,88.6,68.7,29.93,North,0,0.0,0.0,52,0.00,,,0.00,WUHU216HW,2013-05-12 19:31:00,
2013-05-12 15:36:00,88.4,68.5,29.93,North,0,0.0,0.0,52,0.00,,,0.00,WUHU216HW,2013-05-12 19:36:00,
2013-05-12 15:41:00,88.2,68.4,29.92,North,0,0.0,0.0,52,0.00,,,0.00,WUHU216HW,2013-05-12 19:41:00,
2013-05-12 15:46:00,88.4,68.5,29.92,North,0,0.0,0.0,52,0.00,,,0.00,WUHU216HW,2013-05-12 19:46:00,
2013-05-12 15:51:00,88.6,68.7,29.92,North,0,0.0,0.0,52,0.00,,,0.00,WUHU216HW,2013-05-12 19:51:00,
2013-05-12 15:56:00,88.6,68.7,29.92,North,0,0.0,0.0,52,0.00,,,0.00,WUHU216HW,2013-05-12 19:56:00,
2013-05-12 16:01:00,88.6,68.1,29.92,North,0,0.0,0.0,51,0.00,,,0.00,WUHU216HW,2013-05-12 20:01:00,
2013-05-12 16:06:00,88.6,68.1,29.92,North,0,0.0,0.0,51,0.00,,,0.00,WUHU216HW,2013-05-12 20:06:00,
2013-05-12 16:11:00,88.6,68.1,29.92,North,0,0.0,0.0,51,0.00,,,0.00,WUHU216HW,2013-05-12 20:11:00,
2013-05-12 16:16:00,88.4,68.0,29.92,North,0,0.0,0.0,51,0.00,,,0.00,WUHU216HW,2013-05-12 20:16:00,
2013-05-12 16:21:00,88.6,68.1,29.92,North,0,0.0,0.0,51,0.00,,,0.00,WUHU216HW,2013-05-12 20:21:00,
2013-05-12 16:26:00,88.4,68.0,29.92,North,0,0.0,0.0,51,0.00,,,0.00,WUHU216HW,2013-05-12 20:26:00,
2013-05-12 16:31:00,88.4,68.0,29.92,North,0,0.0,0.0,51,0.00,,,0.00,WUHU216HW,2013-05-12 20:31:00,
2013-05-12 16:36:00,88.2,67.9,29.92,North,0,0.0,0.0,51,0.00,,,0.00,WUHU216HW,2013-05-12 20:36:00,
2013-05-12 16:41:00,88.0,67.7,29.92,North,0,0.0,0.0,51,0.00,,,0.00,WUHU216HW,2013-05-12 20:41:00,
2013-05-12 16:46:00,88.0,67.7,29.92,North,0,0.0,0.0,51,0.00,,,0.00,WUHU216HW,2013-05-12 20:46:00,
2013-05-12 16:51:00,88.0,67.7,29.92,North,0,0.0,0.0,51,0.00,,,0.00,WUHU216HW,2013-05-12 20:51:00,
2013-05-12 16:56:00,87.8,67.5,29.92,North,0,0.0,0.0,51,0.00,,,0.00,WUHU216HW,2013-05-12 20:56:00,
2013-05-12 17:01:00,87.8,67.5,29.92,North,0,0.0,0.0,51,0.00,,,0.00,WUHU216HW,2013-05-12 21:01:00,
2013-05-12 17:06:00,87.7,67.3,29.92,North,0,0.0,0.0,51,0.00,,,0.00,WUHU216HW,2013-05-12 21:06:00,
2013-05-12 17:11:00,87.7,67.3,29.92,North,0,0.0,0.0,51,0.00,,,0.00,WUHU216HW,2013-05-12 21:11:00,
2013-05-12 17:16:00,87.5,67.7,29.92,North,0,0.0,0.0,52,0.00,,,0.00,WUHU216HW,2013-05-12 21:16:00,
2013-05-12 17:21:00,87.5,67.1,29.92,North,0,0.0,0.0,51,0.00,,,0.00,WUHU216HW,2013-05-12 21:21:00,
2013-05-12 17:26:00,87.5,67.1,29.92,North,0,0.0,0.0,51,0.00,,,0.00,WUHU216HW,2013-05-12 21:26:00,
2013-05-12 17:31:00,87.5,67.7,29.92,North,0,0.0,0.0,52,0.00,,,0.00,WUHU216HW,2013-05-12 21:31:00,
2013-05-12 17:36:00,87.3,67.5,29.92,North,0,0.0,0.0,52,0.00,,,0.00,WUHU216HW,2013-05-12 21:36:00,
2013-05-12 17:41:00,87.1,67.4,29.92,North,0,0.0,0.0,52,0.00,,,0.00,WUHU216HW,2013-05-12 21:41:00,
2013-05-12 17:46:00,86.9,67.2,29.93,North,0,0.0,0.0,52,0.00,,,0.00,WUHU216HW,2013-05-12 21:46:00,
2013-05-12 17:51:00,86.9,67.2,29.93,North,0,0.0,0.0,52,0.00,,,0.00,WUHU216HW,2013-05-12 21:51:00,
2013-05-12 17:56:00,86.8,67.1,29.93,North,0,0.0,0.0,52,0.00,,,0.00,WUHU216HW,2013-05-12 21:56:00,
2013-05-12 18:01:00,86.0,66.4,29.93,North,0,0.0,0.0,52,0.00,,,0.00,WUHU216HW,2013-05-12 22:01:00,
2013-05-12 18:06:00,85.9,66.8,29.93,North,0,0.0,0.0,53,0.00,,,0.00,WUHU216HW,2013-05-12 22:06:00,
2013-05-12 18:11:00,85.9,66.8,29.93,North,0,0.0,0.0,53,0.00,,,0.00,WUHU216HW,2013-05-12 22:11:00,
2013-05-12 18:16:00,85.9,66.8,29.93,North,0,0.0,0.0,53,0.00,,,0.00,WUHU216HW,2013-05-12 22:16:00,
2013-05-12 18:21:00,85.7,66.6,29.93,North,0,0.0,0.0,53,0.00,,,0.00,WUHU216HW,2013-05-12 22:21:00,
2013-05-12 18:26:00,85.7,66.6,29.93,North,0,0.0,0.0,53,0.00,,,0.00,WUHU216HW,2013-05-12 22:26:00,
2013-05-12 18:31:00,85.5,66.4,29.93,North,0,0.0,0.0,53,0.00,,,0.00,WUHU216HW,2013-05-12 22:31:00,
2013-05-12 18:36:00,85.5,66.4,29.93,North,0,0.0,0.0,53,0.00,,,0.00,WUHU216HW,2013-05-12 22:36:00,
2013-05-12 18:41:00,85.3,66.2,29.93,North,0,0.0,0.0,53,0.00,,,0.00,WUHU216HW,2013-05-12 22:41:00,
2013-05-12 18:46:00,85.1,66.1,29.93,North,0,0.0,0.0,53,0.00,,,0.00,WUHU216HW,2013-05-12 22:46:00,
2013-05-12 18:51:00,85.1,66.1,29.93,North,0,0.0,0.0,53,0.00,,,0.00,WUHU216HW,2013-05-12 22:51:00,
2013-05-12 18:56:00,85.0,66.0,29.93,North,0,0.0,0.0,53,0.00,,,0.00,WUHU216HW,2013-05-12 22:56:00,
2013-05-12 19:01:00,84.8,66.3,29.94,North,0,0.0,0.0,54,0.00,,,0.00,WUHU216HW,2013-05-12 23:01:00,
2013-05-12 19:06:00,84.6,66.2,29.94,North,0,0.0,0.0,54,0.00,,,0.00,WUHU216HW,2013-05-12 23:06:00,
2013-05-12 19:11:00,84.4,66.0,29.94,North,0,0.0,0.0,54,0.00,,,0.00,WUHU216HW,2013-05-12 23:11:00,
2013-05-12 19:16:00,84.4,66.0,29.94,North,0,0.0,0.0,54,0.00,,,0.00,WUHU216HW,2013-05-12 23:16:00,
2013-05-12 19:21:00,84.2,65.8,29.94,North,0,0.0,0.0,54,0.00,,,0.00,WUHU216HW,2013-05-12 23:21:00,
2013-05-12 19:26:00,84.2,65.8,29.94,North,0,0.0,0.0,54,0.00,,,0.00,WUHU216HW,2013-05-12 23:26:00,
2013-05-12 19:31:00,83.9,65.4,29.94,North,0,0.0,0.0,54,0.00,,,0.00,WUHU216HW,2013-05-12 23:31:00,
2013-05-12 19:36:00,83.9,64.9,29.95,North,0,0.0,0.0,53,0.00,,,0.00,WUHU216HW,2013-05-12 23:36:00,
2013-05-12 19:41:00,83.7,65.3,29.95,North,0,0.0,0.0,54,0.00,,,0.00,WUHU216HW,2013-05-12 23:41:00,
2013-05-12 19:46:00,83.5,65.1,29.95,North,0,0.0,0.0,54,0.00,,,0.00,WUHU216HW,2013-05-12 23:46:00,
2013-05-12 19:51:00,83.3,64.9,29.95,North,0,0.0,0.0,54,0.00,,,0.00,WUHU216HW,2013-05-12 23:51:00,
2013-05-12 19:56:00,83.2,64.7,29.95,North,0,0.0,0.0,54,0.00,,,0.00,WUHU216HW,2013-05-12 23:56:00,
2013-05-12 20:01:00,83.2,64.7,29.96,North,0,0.0,0.0,54,0.00,,,0.00,WUHU216HW,2013-05-13 00:01:00,
2013-05-12 20:06:00,83.2,64.7,29.96,North,0,0.0,0.0,54,0.00,,,0.00,WUHU216HW,2013-05-13 00:06:00,
2013-05-12 20:11:00,83.0,65.1,29.97,North,0,0.0,0.0,55,0.00,,,0.00,WUHU216HW,2013-05-13 00:11:00,
2013-05-12 20:16:00,82.8,64.9,29.97,North,0,0.0,0.0,55,0.00,,,0.00,WUHU216HW,2013-05-13 00:16:00,
2013-05-12 20:21:00,82.6,65.3,29.97,North,0,0.0,0.0,56,0.00,,,0.00,WUHU216HW,2013-05-13 00:21:00,
2013-05-12 20:26:00,82.4,65.1,29.97,North,0,0.0,0.0,56,0.00,,,0.00,WUHU216HW,2013-05-13 00:26:00,
2013-05-12 20:31:00,82.3,64.9,29.97,North,0,0.0,0.0,56,0.00,,,0.00,WUHU216HW,2013-05-13 00:31:00,
2013-05-12 20:36:00,82.1,64.7,29.97,North,0,0.0,0.0,56,0.00,,,0.00,WUHU216HW,2013-05-13 00:36:00,
2013-05-12 20:41:00,81.9,64.5,29.97,North,0,0.0,0.0,56,0.00,,,0.00,WUHU216HW,2013-05-13 00:41:00,
2013-05-12 20:46:00,81.9,64.5,29.97,North,0,0.0,0.0,56,0.00,,,0.00,WUHU216HW,2013-05-13 00:46:00,
2013-05-12 20:51:00,81.7,64.9,29.97,North,0,0.0,0.0,57,0.00,,,0.00,WUHU216HW,2013-05-13 00:51:00,
2013-05-12 20:56:00,81.5,64.8,29.97,North,0,0.0,0.0,57,0.00,,,0.00,WUHU216HW,2013-05-13 00:56:00,
2013-05-12 21:01:00,81.4,65.2,29.97,North,0,0.0,0.0,58,0.00,,,0.00,WUHU216HW,2013-05-13 01:01:00,
2013-05-12 21:06:00,81.4,65.2,29.97,North,0,0.0,0.0,58,0.00,,,0.00,WUHU216HW,2013-05-13 01:06:00,
2013-05-12 21:11:00,81.2,65.5,29.97,North,0,0.0,0.0,59,0.00,,,0.00,WUHU216HW,2013-05-13 01:11:00,
2013-05-12 21:16:00,81.0,65.4,29.98,North,0,0.0,0.0,59,0.00,,,0.00,WUHU216HW,2013-05-13 01:16:00,
2013-05-12 21:21:00,81.0,65.4,29.98,North,0,0.0,0.0,59,0.00,,,0.00,WUHU216HW,2013-05-13 01:21:00,
2013-05-12 21:26:00,80.8,65.2,29.98,North,0,0.0,0.0,59,0.00,,,0.00,WUHU216HW,2013-05-13 01:26:00,
2013-05-12 21:31:00,80.8,65.2,29.99,North,0,0.0,0.0,59,0.00,,,0.00,WUHU216HW,2013-05-13 01:31:00,
2013-05-12 21:36:00,80.6,65.5,29.99,North,0,0.0,0.0,60,0.00,,,0.00,WUHU216HW,2013-05-13 01:36:00,
2013-05-12 21:41:00,80.6,65.5,29.99,North,0,0.0,0.0,60,0.00,,,0.00,WUHU216HW,2013-05-13 01:41:00,
2013-05-12 21:46:00,80.3,65.2,30.00,North,0,0.0,0.0,60,0.00,,,0.00,WUHU216HW,2013-05-13 01:46:00,
2013-05-12 21:51:00,80.3,65.2,30.00,North,0,0.0,0.0,60,0.00,,,0.00,WUHU216HW,2013-05-13 01:51:00,
2013-05-12 21:57:00,80.1,65.1,30.00,North,0,0.0,0.0,60,0.00,,,0.00,WUHU216HW,2013-05-13 01:57:00,
2013-05-12 22:02:00,80.1,65.1,30.00,North,0,0.0,0.0,60,0.00,,,0.00,WUHU216HW,2013-05-13 02:02:00,
2013-05-12 22:07:00,79.9,64.9,30.00,North,0,0.0,0.0,60,0.00,,,0.00,WUHU216HW,2013-05-13 02:07:00,
2013-05-12 22:12:00,79.7,64.7,30.00,North,0,0.0,0.0,60,0.00,,,0.00,WUHU216HW,2013-05-13 02:12:00,
2013-05-12 22:17:00,79.7,65.2,30.00,North,0,0.0,0.0,61,0.00,,,0.00,WUHU216HW,2013-05-13 02:17:00,
2013-05-12 22:22:00,79.7,65.2,30.00,North,0,0.0,0.0,61,0.00,,,0.00,WUHU216HW,2013-05-13 02:22:00,
2013-05-12 22:27:00,79.6,65.0,30.01,North,0,0.0,0.0,61,0.00,,,0.00,WUHU216HW,2013-05-13 02:27:00,
2013-05-12 22:32:00,79.6,65.0,30.01,North,0,0.0,0.0,61,0.00,,,0.00,WUHU216HW,2013-05-13 02:32:00,
2013-05-12 22:37:00,79.6,65.4,30.01,North,0,0.0,0.0,62,0.00,,,0.00,WUHU216HW,2013-05-13 02:37:00,
2013-05-12 22:42:00,79.2,65.1,30.01,North,0,0.0,0.0,62,0.00,,,0.00,WUHU216HW,2013-05-13 02:42:00,
2013-05-12 22:47:00,79.0,65.3,30.01,North,0,0.0,0.0,63,0.00,,,0.00,WUHU216HW,2013-05-13 02:47:00,
2013-05-12 22:52:00,79.0,65.3,30.01,North,0,0.0,0.0,63,0.00,,,0.00,WUHU216HW,2013-05-13 02:52:00,
2013-05-12 22:57:00,78.8,65.2,30.01,North,0,0.0,0.0,63,0.00,,,0.00,WUHU216HW,2013-05-13 02:57:00,
2013-05-12 23:02:00,78.7,65.0,30.01,North,0,0.0,0.0,63,0.00,,,0.00,WUHU216HW,2013-05-13 03:02:00,
2013-05-12 23:07:00,78.5,64.9,30.01,North,0,0.0,0.0,63,0.00,,,0.00,WUHU216HW,2013-05-13 03:07:00,
2013-05-12 23:12:00,78.1,64.5,30.01,North,0,0.0,0.0,63,0.00,,,0.00,WUHU216HW,2013-05-13 03:12:00,
2013-05-12 23:17:00,77.8,64.6,30.01,North,0,0.0,0.0,64,0.00,,,0.00,WUHU216HW,2013-05-13 03:17:00,
2013-05-12 23:22:00,77.8,65.1,30.01,North,0,0.0,0.0,65,0.00,,,0.00,WUHU216HW,2013-05-13 03:22:00,
2013-05-12 23:27:00,77.8,65.1,30.01,North,0,0.0,0.0,65,0.00,,,0.00,WUHU216HW,2013-05-13 03:27:00,
2013-05-12 23:32:00,77.6,64.9,30.01,North,0,0.0,0.0,65,0.00,,,0.00,WUHU216HW,2013-05-13 03:32:00,
2013-05-12 23:37:00,77.8,65.1,30.01,North,0,0.0,0.0,65,0.00,,,0.00,WUHU216HW,2013-05-13 03:37:00,
2013-05-12 23:42:00,77.6,65.4,30.01,North,0,0.0,0.0,66,0.00,,,0.00,WUHU216HW,2013-05-13 03:42:00,
2013-05-12 23:47:00,77.6,65.4,30.01,North,0,0.0,0.0,66,0.00,,,0.00,WUHU216HW,2013-05-13 03:47:00,
2013-05-12 23:52:00,77.4,65.2,30.01,North,0,0.0,0.0,66,0.00,,,0.00,WUHU216HW,2013-05-13 03:52:00,
2013-05-12 23:57:00,77.4,65.2,30.01,North,0,0.0,0.0,66,0.00,,,0.00,WUHU216HW,2013-05-13 03:57:00,